User: anonymous   Login
Location: Innsbruck
(47.2657°N, 11.3914°E)
Time: 16:54:41
(UTC+01:00)
Language:

UNISAT 6 - Orbit

View from above orbital plane
View from above orbital plane
View from above satellite
View from above satellite

Ground track
Ground track

The orbit data is extracted from the following two-line orbital elements,

1 40012U 14033C   21331.85588885  .00000375  00000-0  62138-4 0  9992
2 40012  97.6634 165.6166 0059335  91.6522 269.1485 14.74448336400277
Epoch (UTC): 27 November 2021 20:32:28
Eccentricity: 0.0059335
inclination: 97.6634°
perigee height: 605 km
apogee height: 688 km
right ascension of ascending node: 165.6166°
argument of perigee: 91.6522°
revolutions per day: 14.74448336
mean anomaly at epoch: 269.1485°
orbit number at epoch: 40027

The dashed part of the orbit path shows where the satellite is in the earth's shadow,  

DLR